Find Starlink 30965

NORAD ID: 58477 Int'l Des: 2023-186 Owner: SPXS Country: US Constellation: starlink operational
LEOCIRCULAR

当前视图

正在加载3D地球...

About Starlink 30965

Starlink 30965 (NORAD 58477) is a starlink constellation satellite (v2 mini) launched Dec 3, 2023 by SPXS of US. It operates in LEO, CIRCULAR orbit with a mass of 730.00 kg.

关于 Starlink 30965

正在加载描述...

即将过境

Passes for default location (London). Set your location on the main map for personalized predictions.

高度历史

Loading altitude history...

两行轨道根数

1 58477U 23186E 26166.87111088 .00000795 00000-0 38411-4 0 9998
2 58477 43.0071 217.7220 0002321 275.7918 84.2669 15.27582274141044
Epoch: Jun 15, 2026 • Age: 26 hours

当前状态

高度 484.7 km
速度 7.63 km/s
星下点 28.34°N, 112.25°E
发射日期 Dec 3, 2023
运行时间 2.5 years
类型 internet

技术详情

分类 Payload
质量 730.00 kg
干质量 700.00 kg
总质量 730.00 kg
长度 0.30 m
直径 4.10 m
跨度 29.00 m
形状 Box + pan
制造商 SPXS
平台类型 Starlink V2M
阶段状态 In Orbit
所有者/国家 SPXS/US

Most Searched